Location: Columbus
(35.2256°N, 82.1549°W)
Time: 17:29:58
(UTC-05:00)

ISS - Pass Details

Date: 05 December 2021
Orbit: 413 x 422 km, 51.6° (Epoch: 23 January)

Event Time Altitude Azimuth Distance (km) Brightness Sun altitude
Rises 18:54:24 0° 317° (NW) 2,375 0.5 -19.6°
Reaches altitude 10° 18:56:34 10° 324° (NW) 1,506 -0.7 -20.0°
Enters shadow 18:58:37 30° 345° (NNW) 777 -2.5 -20.4°
